Dati Storici

Data ora Umidita' aria (%) Temperatura aria (°C) Rad globale (W/m²) Gonioanemometro (°) Tacoanemometro (m/s) Pioggia (mm)
15-06-2020 14:50 89.7 % 21.265 -76.086 -0.011 0 0
15-06-2020 14:40 90.1 % 21.173 -50.515 -0.013 0 0
15-06-2020 14:30 89.8 % 21.634 -69.445 1.069 0 0
15-06-2020 14:20 86.7 % 21.637 -47.777 -0.014 0 0
15-06-2020 14:10 85.9 % 21.48 -65.874 0.023 0 0
15-06-2020 14:00 84.8 % 21.715 -11.821 -0.022 0 0
15-06-2020 13:50 84.6 % 21.836 -65.045 1.106 0 0
15-06-2020 13:40 87.9 % 21.613 -74.438 -0.021 0 0
15-06-2020 13:30 88.2 % 21.57 -52.578 -0.021 0 0
15-06-2020 13:20 87 % 20.95 -54.316 -0.026 0 0
15-06-2020 13:10 88.7 % 21.307 -56.292 -0.024 0 0
15-06-2020 13:00 88.8 % 21.19 -75.001 1.011 0 0
15-06-2020 12:50 91.3 % 21.443 -76.395 -0.023 0 0
15-06-2020 12:40 92.4 % 21.179 -76.485 1.408 0 0
15-06-2020 12:30 94.3 % 20.834 -73.282 -0.02 0 0
15-06-2020 12:20 94.7 % 20.415 -75.52 -0.019 0 0
15-06-2020 12:10 94.7 % 20.519 -76.389 -0.02 0 0
15-06-2020 12:00 93.3 % 20.526 -75.516 0.38 0 0
15-06-2020 11:50 93.3 % 20.591 -77.76 -0.021 0 0
15-06-2020 11:40 92.8 % 20.429 -39.752 -0.018 0 0

I dati sono presentati in modo automatico a scopo informativo. In seguito a verifica i dati possono subire modifiche o essere invalidati e non riportati negli archivi definitivi.